Wind_Speed
9 10 5 5 4 2 2 4 6 5 4 5 1 4 5 8 10 11 12 13 14 13 15 16 17 13 10 9 2 5 2 8 6 9 5 5 9 9 9 15 16 15 12 12
6 5 5 7 6 5 1 4 5 7 5 4 4 2 4 7 5 8 9 12 13 14 15 16 19 17 15 12 8 1 5 6 9 10 13 12 10 8 1 5 8 13 16 17
6 2 10 3 7 6 5 3 4 5 8 3 3 4 4 3 10 10 9 9 11 14 16 18 21 20 19 17 12 8 5 6 8 8 11 16 15 13 6 7 10 7 10 14
5 7 5 5 3 4 1 2 4 6 5 2 3 3 4 4 5 6 7 8 11 13 14 17 20 21 23 21 17 12 8 9 9 8 9 11 12 17 14 16 15 16 13 15
2 5 5 4 3 4 4 6 5 2 4 3 5 4 5 5 3 2 4 6 9 10 14 16 19 20 22 21 18 14 11 10 10 10 10 11 15 13 23 17 18 18 19 19
2 1 2 2 5 4 8 3 2 1 1 3 4 4 3 3 3 2 3 5 6 9 13 14 16 19 21 20 17 16 13 11 10 10 11 13 14 17 17 17 17 21 19 20
6 2 1 5 4 5 7 5 3 5 5 3 3 3 6 3 2 2 0 3 3 9 14 15 18 20 20 21 19 18 15 13 12 10 9 11 14 16 17 20 16 18 16 16
3 6 5 8 1 1 4 3 3 3 3 4 6 3 4 2 4 3 3 1 1 8 11 14 18 19 18 18 19 19 16 14 14 13 10 8 12 15 17 19 20 17 19 18
3 4 2 3 2 2 6 5 3 4 2 1 4 4 2 1 5 8 5 3 3 8 11 12 15 18 19 17 17 17 16 14 13 12 11 9 9 12 16 17 20 18 19 17
3 3 2 2 1 2 3 2 4 3 3 4 5 5 4 3 0 3 2 1 2 7 10 11 14 16 16 18 16 13 13 14 13 11 10 9 8 9 11 14 16 17 18 18
4 3 4 2 0 3 3 3 1 2 2 3 2 6 5 5 3 3 3 4 8 9 10 11 12 14 15 15 15 15 13 12 10 10 11 11 9 7 7 8 11 12 15 17
6 4 2 6 4 2 2 2 2 3 4 1 3 6 2 5 4 3 5 6 8 9 10 10 12 13 14 13 13 13 14 14 14 12 11 10 8 6 4 2 3 7 8 13
4 1 3 7 5 4 2 3 2 4 3 4 4 6 2 4 7 8 10 9 10 11 10 9 10 12 14 14 13 12 13 13 13 13 12 11 9 8 6 4 3 2 5 7
4 2 6 5 5 4 3 3 5 6 3 3 6 8 6 7 6 14 18 18 15 13 9 8 8 9 12 12 13 13 13 13 12 11 11 10 9 8 8 8 7 7 6 6
3 3 2 5 5 3 5 6 7 8 6 6 5 6 12 8 10 21 14 9 10 8 7 6 5 7 8 10 11 11 11 13 13 10 8 10 9 8 8 9 9 10 10 9
2 2 2 5 2 1 5 8 9 4 3 10 13 20 15 10 3 9 9 7 8 7 5 4 4 4 6 9 10 10 10 11 12 10 7 7 8 7 8 10 10 11 11 11
5 4 3 5 2 3 5 7 11 4 5 7 6 11 4 4 4 8 10 11 9 7 5 5 4 4 5 7 8 7 8 9 8 8 9 5 8 8 8 8 7 9 9 10
5 3 3 4 5 3 5 5 7 7 6 16 8 7 8 8 7 12 14 14 13 10 7 6 4 3 4 5 6 7 7 7 7 8 8 8 9 8 7 6 5 6 7 7
1 4 1 2 2 7 2 4 7 7 6 15 18 16 16 14 10 18 11 18 15 11 8 5 4 3 2 3 4 5 6 6 7 9 8 10 11 10 9 7 6 7 8 9
2 4 3 3 2 4 4 3 6 4 4 7 22 13 13 11 2 4 2 4 10 13 11 8 6 5 3 2 2 2 3 4 5 8 9 10 10 10 7 7 8 9 10 10
2 1 5 3 3 9 5 9 10 5 5 5 12 11 13 7 10 4 4 4 6 9 10 11 9 7 6 4 2 1 0 2 3 3 5 7 8 7 6 6 6 8 8 8
8 8 4 3 1 8 14 8 7 3 3 5 6 9 14 18 12 12 9 7 7 9 12 13 12 10 9 7 4 4 3 2 1 2 2 3 5 4 4 5 5 4 5 6
4 7 6 10 7 3 30 9 16 5 3 4 7 7 9 12 16 18 15 14 12 11 12 13 13 13 13 11 8 7 7 6 5 5 6 6 5 6 6 7 8 9 8 8
4 7 2 2 3 21 23 26 25 19 20 18 16 13 12 14 13 15 17 20 19 17 16 15 16 17 16 15 13 11 10 10 9 9 9 9 8 8 9 8 8 8 8 8
5 14 6 6 14 19 28 26 22 17 20 22 20 25 28 23 22 21 19 17 18 20 20 21 20 19 17 18 17 17 15 14 14 13 13 12 11 11 11 11 11 10 9 8
13 8 6 8 17 10 9 6 6 11 17 19 20 19 17 20 23 24 30 28 23 22 22 25 26 23 20 22 22 22 21 19 18 17 16 15 14 13 13 13 13 12 12 12
Wind_Direction
41 58 30 333 16 331 293 23 348 319 321 20 341 147 121 83 58 46 45 43 37 34 29 18 13 18 15 6 43 123 239 282 292 171 117 0 347 14 201 194 207 212 207 219
39 53 314 309 31 358 35 45 341 310 336 339 318 285 145 120 104 75 56 43 25 25 33 19 13 12 9 10 14 43 201 236 234 209 209 186 209 188 142 186 234 227 223 237
93 272 314 352 35 25 66 73 315 279 317 291 310 322 155 144 126 99 68 46 27 27 23 15 14 11 1 1 358 347 296 244 241 237 217 227 227 215 197 213 208 202 216 227
73 353 354 45 65 23 84 8 324 316 14 320 87 285 195 193 136 93 79 49 30 20 17 13 9 8 4 356 351 336 316 287 261 253 238 231 221 221 218 224 212 229 227 228
276 360 0 18 336 340 254 320 279 284 323 16 340 61 298 168 168 123 87 56 16 10 4 10 6 3 360 357 355 348 332 306 285 268 247 236 234 223 217 222 230 223 232 232
105 58 59 272 287 255 307 309 222 323 70 36 284 106 273 239 183 155 50 28 8 360 355 359 2 357 359 357 358 355 350 335 310 284 259 239 231 234 240 242 224 231 233 240
347 360 324 347 333 2 9 37 353 8 15 229 317 32 246 202 176 160 175 352 7 347 349 352 356 356 356 356 357 358 357 349 334 306 270 250 235 227 232 240 234 224 219 236
107 344 5 347 66 223 336 64 132 189 322 289 321 253 277 176 180 230 247 353 41 355 348 347 350 353 355 354 356 353 353 358 350 334 313 266 243 233 229 229 238 228 229 227
93 299 311 53 330 40 319 40 279 97 52 14 257 274 291 262 275 265 226 148 45 350 342 344 346 351 354 357 0 2 359 357 351 347 337 314 272 247 236 231 231 237 238 232
222 19 283 312 341 342 85 242 28 360 40 335 304 299 244 286 14 30 46 160 336 331 335 340 345 349 352 354 358 6 10 4 3 1 354 344 325 289 258 242 234 232 232 229
127 106 291 10 312 180 28 1 358 127 130 152 295 274 218 196 195 296 302 293 309 325 333 340 344 350 353 354 357 2 13 19 17 8 2 353 342 328 304 252 234 226 222 222
187 145 224 225 260 17 98 227 137 128 278 234 156 275 259 185 190 245 275 271 285 308 323 335 344 352 360 6 6 12 16 18 19 19 17 13 9 359 347 330 225 213 218 218
180 323 11 347 352 357 211 197 154 114 83 220 144 261 308 264 265 267 271 270 277 300 308 326 339 352 4 12 8 6 14 18 22 21 20 20 29 41 54 65 86 133 165 183
141 113 169 197 211 135 188 248 196 136 130 221 230 287 280 274 268 280 283 279 273 291 290 314 336 351 7 9 9 10 16 17 26 30 33 39 46 56 65 91 98 119 141 162
144 200 172 257 256 265 224 192 206 187 197 175 254 232 282 268 264 299 299 275 255 255 272 296 323 354 7 13 8 15 14 19 28 29 38 56 57 65 81 94 115 128 134 140
189 264 89 293 336 290 263 235 208 228 256 273 268 283 268 264 296 305 297 247 241 242 257 277 295 346 15 19 13 15 11 18 26 38 50 71 72 79 99 104 109 118 134 148
174 136 84 274 310 325 321 222 187 192 217 160 183 226 214 222 233 283 286 257 253 249 263 275 294 336 13 19 15 13 13 23 30 32 34 72 78 88 93 81 105 117 129 134
157 124 112 257 350 6 241 146 181 193 223 216 260 243 218 220 253 278 275 268 258 243 243 259 273 308 351 15 15 17 17 32 57 60 54 83 82 82 85 95 111 110 105 131
132 137 64 124 220 294 273 201 162 177 278 209 223 249 247 254 279 284 269 259 253 246 240 250 259 264 312 7 20 33 30 36 66 81 81 92 85 83 82 74 92 107 107 128
78 72 118 69 145 225 243 176 174 161 305 210 203 231 227 188 160 257 215 254 229 226 236 244 244 249 261 317 20 45 55 56 72 92 97 99 98 91 100 113 118 114 118 137
133 63 161 178 243 282 230 159 144 83 236 184 207 219 192 213 215 192 193 221 231 233 233 238 237 242 246 259 282 260 352 45 61 73 104 112 110 113 126 123 113 112 121 132
178 153 181 102 123 277 160 126 175 212 179 196 219 221 216 237 250 237 239 230 237 237 233 235 237 240 239 242 249 238 231 228 215 238 203 147 127 127 130 127 120 128 131 121
226 187 179 189 211 244 185 206 217 210 232 242 253 256 250 247 247 250 253 246 246 246 242 240 239 236 240 239 237 245 241 232 228 221 218 210 189 184 179 166 164 167 159 151
239 186 184 62 249 233 235 232 245 248 259 270 267 270 263 257 260 256 253 253 250 246 247 244 239 240 239 241 238 233 239 238 235 238 228 217 213 211 206 194 187 175 169 165
185 147 175 266 276 268 269 250 246 253 266 271 278 267 259 262 266 265 262 259 261 256 248 246 247 247 245 241 241 239 237 238 235 236 238 232 220 215 213 208 203 198 195 190
190 173 172 222 216 207 240 216 247 270 276 280 281 279 280 271 276 274 264 262 263 262 256 246 246 247 245 242 241 240 240 239 239 237 237 239 240 235 228 223 218 215 217 217
Height
1554 1562 1570 1567 1563 1560 1561 1562 1565 1557 1553 1553 1552 1554 1555 1555 1555 1554 1552 1551 1549 1548 1545 1542 1541 1540 1539 1534 1533 1530 1531 1535 1533 1531 1534 1535 1532 1534 1531 1533 1540 1544 1548 1551
1562 1570 1566 1563 1562 1562 1559 1563 1569 1559 1553 1554 1553 1553 1554 1554 1555 1555 1553 1551 1550 1549 1546 1543 1540 1536 1534 1533 1528 1529 1530 1530 1530 1529 1533 1533 1534 1534 1532 1535 1539 1542 1545 1548
1569 1570 1565 1562 1566 1565 1567 1569 1571 1569 1558 1552 1553 1555 1555 1554 1554 1555 1554 1552 1550 1548 1546 1542 1538 1536 1534 1530 1529 1528 1528 1527 1525 1524 1524 1527 1530 1530 1530 1533 1537 1539 1542 1544
1571 1569 1567 1566 1568 1568 1565 1566 1566 1564 1566 1569 1554 1574 1555 1554 1555 1555 1555 1552 1551 1549 1546 1543 1540 1537 1533 1530 1527 1527 1524 1525 1522 1522 1521 1521 1523 1524 1527 1532 1533 1535 1538 1540
1577 1574 1571 1570 1571 1570 1568 1565 1566 1564 1565 1563 1558 1576 1558 1554 1556 1555 1554 1553 1551 1549 1547 1544 1541 1538 1535 1531 1528 1527 1525 1523 1520 1520 1519 1520 1523 1522 1526 1529 1531 1532 1534 1537
1573 1573 1574 1573 1569 1568 1566 1563 1564 1563 1567 1587 1561 1568 1562 1554 1551 1552 1552 1551 1551 1548 1547 1545 1542 1538 1534 1531 1528 1524 1522 1519 1519 1518 1517 1518 1519 1520 1523 1524 1526 1529 1530 1532
1579 1574 1573 1572 1571 1567 1568 1574 1604 1594 1594 1587 1558 1569 1556 1550 1551 1551 1551 1549 1549 1548 1545 1543 1540 1537 1534 1528 1525 1522 1521 1518 1517 1517 1515 1514 1514 1516 1518 1521 1522 1523 1526 1527
1599 1591 1578 1575 1578 1578 1575 1577 1603 1604 1592 1588 1568 1562 1550 1549 1550 1549 1549 1548 1547 1546 1544 1541 1538 1537 1534 1530 1525 1521 1517 1516 1516 1513 1511 1510 1510 1511 1513 1515 1518 1519 1521 1522
1605 1589 1577 1577 1577 1579 1579 1589 1580 1598 1603 1593 1572 1552 1551 1550 1548 1547 1548 1547 1546 1545 1543 1540 1538 1534 1532 1530 1526 1520 1516 1513 1512 1510 1509 1507 1507 1507 1508 1510 1512 1514 1516 1519
1590 1594 1583 1577 1577 1577 1578 1579 1593 1599 1615 1606 1578 1565 1555 1548 1546 1546 1547 1546 1545 1544 1543 1540 1537 1533 1530 1526 1524 1522 1518 1513 1510 1508 1507 1505 1504 1503 1502 1504 1507 1508 1512 1514
1585 1596 1588 1583 1584 1581 1582 1590 1579 1584 1590 1606 1613 1567 1549 1545 1545 1545 1545 1545 1544 1542 1540 1539 1536 1533 1528 1525 1521 1518 1516 1515 1512 1508 1505 1503 1502 1501 1500 1500 1502 1504 1506 1509
1581 1588 1598 1590 1580 1577 1577 1578 1578 1598 1599 1598 1593 1577 1543 1543 1543 1543 1542 1542 1541 1540 1538 1536 1534 1531 1528 1524 1520 1517 1513 1510 1508 1507 1505 1503 1502 1500 1499 1499 1499 1501 1503 1506
1580 1592 1610 1594 1591 1581 1581 1576 1576 1582 1593 1601 1602 1572 1543 1542 1542 1541 1540 1539 1538 1537 1536 1535 1532 1529 1526 1523 1519 1516 1512 1509 1506 1503 1502 1501 1500 1498 1498 1499 1499 1500 1502 1505
1577 1592 1589 1587 1576 1578 1584 1584 1575 1583 1609 1591 1580 1564 1547 1543 1542 1538 1537 1535 1535 1534 1533 1533 1531 1528 1525 1522 1519 1516 1513 1510 1507 1505 1504 1502 1501 1500 1499 1498 1499 1501 1504 1506
1578 1591 1595 1585 1579 1578 1576 1577 1579 1580 1573 1584 1570 1571 1542 1542 1537 1533 1532 1531 1531 1531 1532 1531 1529 1528 1525 1523 1520 1517 1514 1512 1509 1508 1505 1503 1502 1501 1500 1500 1501 1502 1503 1505
1577 1586 1591 1590 1581 1581 1581 1572 1575 1579 1579 1569 1560 1553 1534 1533 1533 1532 1531 1530 1529 1529 1530 1529 1528 1526 1525 1523 1521 1518 1516 1514 1511 1509 1507 1505 1504 1504 1503 1503 1502 1503 1505 1506
1579 1582 1597 1590 1586 1586 1572 1561 1563 1563 1559 1557 1564 1538 1530 1529 1528 1529 1528 1528 1528 1528 1528 1527 1526 1525 1524 1522 1521 1519 1517 1515 1513 1512 1510 1508 1507 1507 1507 1508 1508 1508 1509 1510
1576 1581 1588 1595 1586 1562 1542 1541 1544 1547 1546 1541 1533 1528 1527 1525 1523 1523 1524 1524 1525 1526 1526 1525 1525 1524 1523 1522 1520 1519 1517 1516 1515 1513 1511 1510 1510 1510 1511 1511 1511 1511 1511 1512
1570 1574 1595 1597 1611 1551 1536 1539 1541 1541 1528 1524 1526 1521 1524 1524 1522 1516 1516 1518 1520 1523 1524 1523 1523 1524 1523 1522 1521 1519 1518 1517 1516 1514 1513 1512 1512 1512 1512 1512 1512 1512 1513 1513
1572 1571 1583 1609 1588 1560 1525 1527 1530 1532 1537 1513 1516 1516 1519 1522 1524 1516 1513 1515 1517 1519 1521 1521 1521 1522 1522 1522 1521 1520 1519 1517 1516 1516 1515 1514 1513 1513 1514 1513 1513 1514 1514 1515
1586 1584 1589 1603 1598 1552 1524 1525 1529 1539 1525 1512 1513 1514 1517 1519 1511 1510 1510 1512 1515 1517 1518 1519 1520 1520 1520 1520 1520 1519 1519 1517 1516 1516 1516 1515 1515 1515 1516 1515 1515 1515 1517 1517
1562 1568 1580 1593 1593 1550 1517 1526 1525 1512 1509 1510 1510 1510 1510 1511 1512 1511 1511 1510 1512 1514 1514 1515 1517 1518 1518 1518 1519 1518 1518 1518 1517 1517 1516 1516 1516 1517 1518 1518 1517 1518 1518 1519
1546 1532 1542 1538 1528 1509 1509 1504 1505 1506 1507 1508 1509 1510 1509 1509 1509 1510 1510 1510 1509 1511 1512 1513 1513 1516 1517 1516 1517 1517 1517 1517 1517 1517 1517 1516 1516 1516 1518 1518 1519 1519 1519 1520
1527 1524 1531 1527 1504 1504 1505 1502 1501 1501 1503 1505 1505 1506 1506 1505 1506 1506 1506 1507 1507 1506 1508 1509 1510 1510 1512 1514 1514 1515 1515 1515 1516 1516 1516 1516 1516 1517 1517 1518 1518 1519 1521 1521
1514 1518 1523 1520 1503 1499 1495 1494 1494 1495 1497 1498 1497 1498 1500 1500 1501 1502 1502 1501 1502 1502 1503 1504 1505 1505 1507 1509 1511 1512 1513 1513 1513 1514 1514 1515 1515 1516 1516 1517 1518 1518 1519 1520
1501 1502 1509 1499 1485 1486 1485 1487 1488 1490 1491 1492 1492 1492 1494 1494 1493 1493 1494 1495 1496 1497 1497 1497 1498 1500 1501 1503 1505 1506 1508 1509 1510 1510 1511 1512 1513 1514 1514 1515 1515 1516 1517 1519